Forside
METAR-TAF:

METAR-TAF

Lufthavne :

Mejervig

Lyksborg, Tyskland

Breddekreds: 54-50N, længdekreds: 009-30E, højde: 27 m

Aktuelle vejr

Denne rapport blev lavet for 34 minutter siden, kl. 19:20 UTC
Vind 17 kt fra sydvest
Temperatur 5°C
Fugtighed 100%
Tryk 994 hPa
Sigt 10 km eller mere

METAR: ETGG 031920Z AUTO 22017KT 9999 // ////// 05/05 Q0994 ///

Tid: 20:54 (19:54 UTC)


TAF: fraværende

Vejrobservationer og prognoser fra mere end 4000 lufthavne (METAR og TAF).

De gule og røde prikker repræsenterer de meteorologiske stationer.

Flyt musen over at se navnet på stationen.

Så klik over at se vejr observationer og prognoser.

At skifte det kort: Klik på de grønne knapper med et sort kors for at zoome ind; på den grønne knap med en bindestreg for at zoome ud; eller på de grønne pile for tilstødende kort.


METAR-TAF: